User: anonymous   Login
Location: Caltech
(34.1382°N, 118.1253°W)
Time: 23:12:01
(UTC-07:00)
Language:

Cosmos 1733 Rocket - Orbit

View from above orbital plane
View from above orbital plane
View from above satellite
View from above satellite

Ground track
Ground track

The orbit data is extracted from the following two-line orbital elements,

1 16612U 86018B   14304.02320817  .00000597  00000-0  69193-4 0   583
2 16612 082.5147 117.0774 0019259 083.2435 066.4569 14.83676544449059
Epoch (UTC): 31 October 2014 00:33:25
Eccentricity: 0.0019259
inclination: 82.5147°
perigee height: 604 km
apogee height: 631 km
right ascension of ascending node: 117.0774°
argument of perigee: 83.2435°
revolutions per day: 14.83676544
mean anomaly at epoch: 66.4569°
orbit number at epoch: 44905

The dashed part of the orbit path shows where the satellite is in the earth's shadow,  

DLR